Zurück zum Katalog

STARLINK-30372

AktivKommunikationVLEO
NORAD 57789·PAYLOAD·🇺🇸 United States

Gestartet Sep 4, 2023 von Cape Canaveral Space Force Station

Loading…

Nächste Überflüge (nächste 24 Stunden)

TLE

AktuellSource: CelesTrak SupGP

Epoche: Sep 14, 2026, 21:23 UTC

1 57789C 23134U   26257.89145833  .00008969  00000+0  32491-3 0  2572
2 57789  43.0001  89.8626 0001350 271.0826 112.0256 15.27568793    11

Verfolge STARLINK-30372 in Echtzeit mit AllMySat

Download on the App Store